Waarnemingen

Advertentie
Mijn weer
Ponferrada, Spanje (8053): temperatuur & dauwpunt: 14.01.2018 00:00:00 - 20.01.2018 00:00:00 (CET)Ponferrada, Spanje (8053): windsnelheid: 14.01.2018 00:00:00 - 20.01.2018 00:00:00 (CET)Ponferrada, Spanje (8053): windrichting: 14.01.2018 00:00:00 - 20.01.2018 00:00:00 (CET)Ponferrada, Spanje (8053): luchtdruk: 14.01.2018 00:00:00 - 20.01.2018 00:00:00 (CET)Ponferrada, Spanje (8053): zicht: 14.01.2018 00:00:00 - 20.01.2018 00:00:00 (CET)Ponferrada, Spanje (8053): neerslag: 14.01.2018 00:00:00 - 20.01.2018 00:00:00 (CET)
Datum & Tijd tt [°C] td [°C] ff [km/u] ff [kn] dd ppp [hPa] vv [km] rr [mm]
20.01.2018 00:00:00 - - - - - - - -
19.01.2018 23:00:00 4,2 2,2 2 1 ZO 1030,6 16 0,0
19.01.2018 22:00:00 5,6 2,6 2 1 NO 1029,4 20 -
19.01.2018 21:00:00 7,3 3,3 2 1 W 1028,7 19 0,0
19.01.2018 20:00:00 8,6 3,2 5 3 W 1028,1 20 0,0
19.01.2018 19:00:00 9,6 2,9 5 3 W 1026,5 20 -
19.01.2018 18:00:00 11,0 3,0 8 4 W 1025,6 20 0,0
19.01.2018 17:00:00 12,6 3,5 13 7 W 1025,1 20 0,0
19.01.2018 16:00:00 12,8 4,2 15 8 WNW 1024,2 20 -
19.01.2018 15:00:00 13,2 4,9 16 9 WNW 1024,3 20 0,0
19.01.2018 14:00:00 10,4 6,7 5 3 W 1025,5 15 0,0
19.01.2018 13:00:00 8,2 5,7 4 2 NNW 1026,2 12 -
19.01.2018 12:00:00 4,7 4,4 4 2 OZO 1027,6 - 0,0
19.01.2018 11:00:00 3,6 3,3 2 1 WZW 1028,2 2,6 0,0
19.01.2018 10:00:00 2,8 2,5 2 1 NNW 1028,0 5 -
19.01.2018 09:00:00 2,1 2,0 4 2 WNW 1027,8 1,7 0,0
19.01.2018 08:00:00 1,8 1,4 4 2 ZZO 1026,9 9 0,0
19.01.2018 07:00:00 1,8 1,1 2 1 O 1026,8 6 -
19.01.2018 06:00:00 2,8 1,8 2 1 OZO 1026,5 10 0,0
19.01.2018 05:00:00 3,9 2,9 2 1 NW 1026,6 19 0,0
19.01.2018 04:00:00 2,8 2,5 5 3 ZO 1027,0 14 -
19.01.2018 03:00:00 2,2 1,5 0 0 N 1026,5 10 0,0
19.01.2018 02:00:00 2,7 1,8 4 2 ZZO 1026,7 15 0,0
19.01.2018 01:00:00 3,9 2,7 4 2 ZZO 1026,9 13 -
19.01.2018 00:00:00 4,6 3,4 4 2 NNW 1026,6 18 0,0
18.01.2018 23:00:00 3,9 2,6 2 1 ZO 1026,8 11 0,0
18.01.2018 22:00:00 4,6 2,9 4 2 ZO 1026,5 11 -
18.01.2018 21:00:00 4,8 2,8 4 2 ZZO 1026,0 11 0,0
18.01.2018 20:00:00 5,8 3,1 2 1 NNO 1025,0 6 0,0
18.01.2018 19:00:00 7,8 3,8 2 1 O 1024,1 19 -
18.01.2018 18:00:00 10,8 3,3 2 1 NW 1023,0 19 0,0
18.01.2018 17:00:00 11,3 3,6 4 2 WNW 1023,2 20 0,0
18.01.2018 16:00:00 10,1 3,8 4 2 NW 1023,6 20 -
18.01.2018 15:00:00 7,8 3,8 4 2 WNW 1025,1 13 0,0
18.01.2018 14:00:00 5,5 2,8 5 3 W 1026,9 9 0,0
18.01.2018 13:00:00 2,4 1,8 2 1 W 1028,8 3,4 -
18.01.2018 12:00:00 1,0 0,6 4 2 WNW 1030,0 1,1 0,0
18.01.2018 11:00:00 0,3 0,2 2 1 ONO 1030,4 0,6 0,0
18.01.2018 10:00:00 0,3 0,3 4 2 ZO 1030,3 0,3 -
18.01.2018 09:00:00 -0,9 -1,2 2 1 NNW 1030,2 0,2 0,0
18.01.2018 08:00:00 -0,9 -1,3 2 1 NW 1030,2 12 0,0
18.01.2018 07:00:00 -0,9 -1,5 2 1 O 1030,2 13 -
18.01.2018 06:00:00 -0,6 -1,2 0 0 N 1030,5 17 0,0
18.01.2018 05:00:00 -0,2 -0,9 2 1 O 1030,6 18 0,0
18.01.2018 04:00:00 0,6 -0,3 2 1 WNW 1031,0 20 -
18.01.2018 03:00:00 0,8 -0,2 2 1 ZZO 1031,2 20 0,0
18.01.2018 02:00:00 1,7 0,7 2 1 NW 1031,5 20 0,0
18.01.2018 01:00:00 1,9 0,4 2 1 OZO 1031,7 20 -
18.01.2018 00:00:00 2,8 0,7 0 0 N 1031,3 16 0,0
17.01.2018 23:00:00 3,8 1,3 2 1 ZZO 1030,9 20 0,0
17.01.2018 22:00:00 5,2 2,0 0 0 N 1030,5 20 -
17.01.2018 21:00:00 5,6 2,2 5 3 ZZO 1030,1 20 0,0
17.01.2018 20:00:00 6,7 2,9 4 2 ZZO 1029,7 20 0,0
17.01.2018 19:00:00 8,6 3,2 2 1 OZO 1028,9 19 -
17.01.2018 18:00:00 11,6 3,4 5 3 NW 1028,0 20 0,0
17.01.2018 17:00:00 13,2 3,0 8 4 NW 1027,5 20 0,0
17.01.2018 16:00:00 13,6 2,5 8 4 WZW 1027,4 19 -
17.01.2018 15:00:00 12,9 2,1 8 4 W 1028,3 20 0,0
17.01.2018 14:00:00 12,4 2,5 8 4 W 1029,1 20 0,0
17.01.2018 13:00:00 11,6 2,9 9 5 ZW 1030,3 20 -
17.01.2018 12:00:00 10,5 3,1 9 5 WZW 1031,5 20 0,0
17.01.2018 11:00:00 9,5 3,9 8 4 W 1031,5 20 0,0
17.01.2018 10:00:00 5,6 3,1 2 1 O 1032,1 18 -
17.01.2018 09:00:00 6,9 2,8 4 2 WNW 1031,0 20 0,0
17.01.2018 08:00:00 7,9 3,2 11 6 WNW 1030,2 20 0,0
17.01.2018 07:00:00 8,4 3,4 8 4 WNW 1029,5 20 -
17.01.2018 06:00:00 9,1 4,1 15 8 WNW 1028,9 20 0,0
17.01.2018 05:00:00 9,5 4,5 13 7 WNW 1028,9 20 0,0
17.01.2018 04:00:00 10,4 5,0 13 7 NW 1028,7 20 -
17.01.2018 03:00:00 10,5 7,7 5 3 WNW 1028,1 20 0,0
17.01.2018 02:00:00 10,7 8,3 11 6 W 1027,8 20 0,0
17.01.2018 01:00:00 11,2 8,8 11 6 W 1027,7 20 -
17.01.2018 00:00:00 11,4 8,8 11 6 W 1027,6 20 0,0
16.01.2018 23:00:00 11,8 8,8 15 8 W 1027,4 20 0,0
16.01.2018 22:00:00 12,0 8,8 13 7 W 1027,3 20 -
16.01.2018 21:00:00 12,2 8,8 13 7 W 1027,0 20 0,0
16.01.2018 20:00:00 12,3 8,9 13 7 W 1027,2 20 0,0
16.01.2018 19:00:00 12,5 8,8 13 7 W 1026,4 20 -
16.01.2018 18:00:00 12,6 8,9 11 6 W 1026,3 20 0,0
16.01.2018 17:00:00 13,6 9,0 15 8 W 1026,2 20 0,0
16.01.2018 16:00:00 14,5 9,3 9 5 W 1026,3 20 -
16.01.2018 15:00:00 15,6 9,7 15 8 WZW 1026,1 20 0,0
16.01.2018 14:00:00 14,8 9,4 13 7 W 1026,9 20 0,0
16.01.2018 13:00:00 13,4 9,6 16 9 W 1028,2 20 -
16.01.2018 12:00:00 11,4 9,5 9 5 WNW 1029,1 20 0,0
16.01.2018 11:00:00 10,4 9,0 11 6 WNW 1029,4 20 0,0
16.01.2018 10:00:00 10,0 8,6 9 5 WNW 1029,1 20 -
16.01.2018 09:00:00 9,8 8,6 4 2 WNW 1028,3 20 0,0
16.01.2018 08:00:00 9,8 8,6 5 3 W 1028,0 20 0,0
16.01.2018 07:00:00 10,1 8,4 8 4 W 1027,4 20 -
16.01.2018 06:00:00 9,8 8,4 5 3 WNW 1027,2 20 0,0
16.01.2018 05:00:00 9,4 8,2 9 5 WNW 1027,5 20 0,0
16.01.2018 04:00:00 8,6 7,7 5 3 NW 1028,0 20 -
16.01.2018 03:00:00 7,5 7,1 9 5 WNW 1027,8 20 0,0
16.01.2018 02:00:00 5,8 5,5 4 2 WNW 1028,8 14 0,0
16.01.2018 01:00:00 5,3 4,9 4 2 O 1029,4 8 -
16.01.2018 00:00:00 5,0 4,6 4 2 W 1029,7 10 0,0
15.01.2018 23:00:00 4,7 4,0 2 1 OZO 1029,7 8 0,0
15.01.2018 22:00:00 4,2 3,2 0 0 N 1029,7 - -
15.01.2018 21:00:00 4,3 3,3 2 1 O 1029,4 10 0,0
15.01.2018 20:00:00 4,3 2,6 2 1 W 1029,1 10 0,0
15.01.2018 19:00:00 4,2 2,5 2 1 N 1029,0 8 -
15.01.2018 18:00:00 4,0 2,0 5 3 ZO 1028,7 16 0,0
15.01.2018 17:00:00 3,7 1,6 4 2 NW 1028,5 15 0,0
15.01.2018 16:00:00 3,3 1,3 2 1 OZO 1028,6 15 -
15.01.2018 15:00:00 2,8 1,3 4 2 NW 1029,0 8 0,0
15.01.2018 14:00:00 2,1 1,2 4 2 WNW 1030,3 7 0,0
15.01.2018 13:00:00 1,0 0,6 2 1 ZZW 1031,2 5 -
15.01.2018 12:00:00 0,4 0,3 2 1 W 1031,6 1,9 0,0
15.01.2018 11:00:00 0,0 -0,1 4 2 O 1031,6 - 0,0
15.01.2018 10:00:00 -0,2 -0,3 2 1 ZZO 1031,2 0,5 -
15.01.2018 09:00:00 -0,7 -0,7 0 0 N 1030,9 0,3 0,0
15.01.2018 08:00:00 -0,9 -0,9 2 1 OZO 1030,1 7 0,0
15.01.2018 07:00:00 -1,3 -1,3 4 2 OZO 1029,7 2,3 -
15.01.2018 06:00:00 -1,8 -1,9 4 2 NW 1029,5 0,2 0,0
15.01.2018 05:00:00 -1,7 -2,0 2 1 NNO 1029,3 15 0,0
15.01.2018 04:00:00 -1,4 -1,8 0 0 N 1029,3 14 -
15.01.2018 03:00:00 -0,9 -1,5 2 1 OZO 1028,5 20 0,0
15.01.2018 02:00:00 -0,3 -0,7 2 1 NNW 1028,6 20 0,0
15.01.2018 01:00:00 0,0 -0,7 2 1 OZO 1028,4 20 -
15.01.2018 00:00:00 0,9 -0,1 4 2 NNW 1027,9 20 0,0
14.01.2018 23:00:00 1,2 0,2 4 2 ZZO 1026,9 20 0,0
14.01.2018 22:00:00 1,9 0,7 4 2 O 1025,7 20 -
14.01.2018 21:00:00 3,2 1,4 2 1 OZO 1025,0 19 0,0
14.01.2018 20:00:00 4,6 2,3 2 1 O 1024,3 20 0,0
14.01.2018 19:00:00 7,0 2,5 4 2 W 1023,1 20 -
14.01.2018 18:00:00 7,8 2,3 5 3 W 1021,7 19 0,0
14.01.2018 17:00:00 8,1 1,7 8 4 WZW 1020,8 19 0,0
14.01.2018 16:00:00 8,3 2,3 8 4 WNW 1020,3 20 -
14.01.2018 15:00:00 8,2 3,6 5 3 W 1020,3 20 0,0
14.01.2018 14:00:00 6,1 3,6 4 2 W 1021,4 20 0,0
14.01.2018 13:00:00 4,0 3,0 4 2 NW 1022,3 15 -
14.01.2018 12:00:00 3,2 2,6 4 2 WZW 1022,7 18 0,0
14.01.2018 11:00:00 2,5 2,2 2 1 ZZW 1022,5 13 0,0
14.01.2018 10:00:00 2,2 1,9 4 2 WZW 1021,9 6 -
14.01.2018 09:00:00 2,3 2,0 2 1 NW 1021,1 - 0,0
14.01.2018 08:00:00 2,5 2,4 2 1 WNW 1020,8 9 0,0
14.01.2018 07:00:00 2,4 2,3 2 1 NW 1020,5 3,0 -
14.01.2018 06:00:00 2,4 2,3 2 1 NNO 1020,3 2,9 0,0
14.01.2018 05:00:00 2,7 2,4 2 1 WZW 1020,2 7 0,0
14.01.2018 04:00:00 2,7 2,6 2 1 N 1020,2 3,1 -
14.01.2018 03:00:00 2,7 2,4 2 1 WZW 1020,0 3,9 0,0
14.01.2018 02:00:00 2,8 2,5 4 2 NW 1019,9 9 0,0
14.01.2018 01:00:00 2,6 2,3 2 1 OZO 1020,3 12 -
14.01.2018 00:00:00 2,6 2,3 0 0 N 1020,4 15 0,0

tt = temperatuur
td = dauwpunt
ff = windsnelheid
dd = windrichting
ppp = luchtdruk
vv = zicht
rr = neerslag

Weerstations in de omgeving